www.pogodaiklimat.ru

Погода и климат >> Архив погоды >> Марокко >> Аль-Аруи


ПОГОДА в Аль-Аруи

  • Прогноз погоды в Аль-Аруи
  • Монитор погоды в Аль-Аруи

АРХИВ ПОГОДЫ в Аль-Аруи

Время (UTC), дата Ветер
(напр.,м/с)
 
Видим.   Явления Облачность Т
(С)
Тd
(С)
f
(%)
Тe
(С)
Тes
(С)
Комфортность P
(гПа)
Po
(гПа)
Тmin
(С)
Tmax
(С)
R
(мм)
R24
(мм)
S
(см)
03 12.08 С 2-4
{6}
15 км 6/0
[Ac trans Ci sp]
+22.6 +6.4 35 +23 +23 комфорт 1013.5 992.6
06 12.08 ЮЗ 5-6
{6}
15 км 3/3 700 м
[Cu hum]
+20.7 +6.6 40 +22 +22 комфорт 1013.6 992.8 +20.1
09 12.08 З 5-8
{8}
15 км ясно +28.2 +6.9 26 +27 +33 жарко 1014.1 993.8
12 12.08 С 10-14
{14}
15 км ясно +32.9 +4.7 17 +30 +31 жарко 1013.3 993.2
15 12.08 С 12 15 км ясно +31.8 +3.8 17 +29 +29 жарко 1012.3 992.4
18 12.08 С 6 15 км ясно +29.9 -1.4 13 +27 +27 жарко 1012.5 992.5 +33.6
21 12.08 В 4 15 км ясно +23.4 +8.3 38 +25 +25 комфорт 1015.3 994.8
00 13.08 ЮЗ 2 15 км н/о +19.7 +8.4 48 +21 +21 комфорт 1015.8 995.0
03 13.08 ЮВ 1 15 км ясно +17.8 +7.8 52 +19 +19 1015.4 994.5
06 13.08 З 5 15 км 4/0
[Ci sp]
+18.2 +8.5 53 +18 +18 1015.4 994.5 +16.4
09 13.08 ЮЗ 2 15 км ясно +27.1 +6.5 27 +26 +36 жарко 1015.6 995.3
12 13.08 СВ 8 15 км ясно +30.1 +14.6 39 +32 +36 жарко 1015.0 995.0
15 13.08 СВ 15-20
{20}
15 км 4/4 700 м
[Cu Sc]
+29.4 +19.1 54 +35 +35 очень
душно
1015.0 994.8
18 13.08 СВ 10-12
{20}
15 км ясно +27.5 +18.8 59 +33 +33 очень
душно
1014.9 994.6 +31.3
21 13.08 С 6-10
{12}
4000 м дымка 6/6 300 м
[St]
+24.9 +20.6 77 +31 +31 очень
душно
1017.1 996.6
00 14.08 СВ 6-8
{12}
4000 м дымка 8/8 300 м
[St]
+24.2 +20.9 82 +30 +30 очень
душно
1017.7 997.1
03 14.08 СЗ 3-4
{4}
н/о дымка 8/8 300 м
[St]
+23.8 +20.5 82 +30 +30 очень
душно
1017.4 997.8
06 14.08 -10
{10}
4000 м дымка н/о +23.8 +21.1 85 +30 +30 очень
душно
1017.7 997.1 +23.2
09 14.08 СВ 7-12
{12}
7000 м 9/9 300 м
[St]
+26.4 +19.8 67 +32 +32 очень
душно
1017.9 997.5
12 14.08 СВ 11-16
{16}
10 км 6/6 700 м
[Cu Sc]
+28.3 +19.5 59 +34 +34 очень
душно
1017.2 996.9
15 14.08 СВ 13-20
{20}
10 км ясно +28.7 +19.4 57 +34 +34 очень
душно
1015.7 996.0
18 14.08 СВ 11-17
{20}
10 км ясно +26.2 +19.6 67 +32 +32 очень
душно
1015.7 995.4 +29.9
21 14.08 В 5-8
{12}
10 км 3/3 400 м
[St]
+24.1 +19.6 76 +29 +29 душно 1017.4 996.9
00 15.08 штиль 0
{12}
8000 м 3/3 360 м
[St]
+21.9 +18.1 79 +27 +27 душно 1017.5 996.9
03 15.08 В 2-4
{4}
8000 м 3/3 360 м
[St]
+21.4 +19.1 87 +26 +26 душно 1016.5 995.8
06 15.08 Ю 2-4
{4}
8000 м 3/3 360 м
[St]
+19.1 +17.2 89 +21 +21 комфорт 1016.9 996.1 +18.9
09 15.08 СВ 6-10
{10}
10 км ясно +26.4 +19.3 65 +32 +36 очень
душно
1016.7 996.4
12 15.08 СВ 10-14
{14}
10 км ясно +29.3 +19.0 54 +35 +36 очень
душно
1015.8 995.7
15 15.08 СВ 10-16
{18}
15 км ясно +29.7 +19.4 54 +35 +36 очень
душно
1015.1 995.0
18 15.08 СВ 6-10
{12}
15 км ясно +27.6 +18.9 59 +33 +33 очень
душно
1015.2 994.9 +30.7
21 15.08 В 4-4
{6}
7000 м 3/3 1000 м
[Sc]
+24.1 +20.0 78 +30 +30 очень
душно
1016.7 996.1
00 16.08 ЮВ 1-2
{2}
6000 м 5/4 240 м
[St Ac trans]
+21.4 +17.8 80 +26 +26 душно 1016.9 996.1
03 16.08 В 2-4
{4}
2000 м дымка 5/4 240 м
[St Ac trans]
+21.6 +20.1 91 +27 +27 душно 1016.3 995.6
06 16.08 З 1-2
{6}
2000 м дымка 4/1 240 м
[St Ac trans]
+20.6 +18.7 89 +26 +26 душно 1016.7 995.9 +19.6
09 16.08 СВ 4-10
{10}
7000 м 4/4 700 м
[Cu Sc]
+26.4 +18.8 63 +31 +35 душно 1016.5 996.1
12 16.08 СВ 9-14
{14}
15 км 1/1 700 м
[Cu hum]
+29.4 +18.7 53 +35 +36 очень
душно
1015.9 995.7
15 16.08 СВ 12-16
{16}
15 км ясно +29.6 +18.7 52 +35 +35 очень
душно
1014.8 994.7
18 16.08 С 6-10
{16}
15 км ясно +27.0 +18.3 59 +32 +32 очень
душно
1014.5 994.3
21 16.08 В 3-4
{8}
15 км ясно +23.5 +19.2 77 +28 +28 душно 1016.1 995.6
00 17.08 В 4-4
{8}
10 км ясно +20.9 +18.1 84 +25 +25 комфорт 1016.3 995.6
03 17.08 штиль 0-4
{4}
15 км 3/3 360 м
[St]
+20.2 +18.5 90 +23 +23 комфорт 1015.3 994.5
06 17.08 З 3-4
{4}
10 км ясно +17.5 +14.6 83 +18 +18 1015.3 994.4 +17.5
09 17.08 СВ 5-10
{10}
15 км ясно +26.7 +18.8 62 +32 +37 очень
душно
1015.0 994.7
12 17.08 СВ 10-14
{14}
15 км ясно +30.2 +19.0 51 +36 +36 очень
душно
1013.6 993.6
15 17.08 СВ 12 15 км ясно +30.0 +19.1 52 +35 +35 очень
душно
1012.2 992.2
18 17.08 СВ 8 15 км ясно +27.8 +18.8 58 +33 +33 очень
душно
1011.6 991.5 +31.1
21 17.08 В 2 15 км ясно +23.9 +20.2 80 +30 +30 очень
душно
1013.0 992.6
00 18.08 В 4 15 км ясно +22.2 +19.6 85 +28 +28 душно 1012.9 992.4
03 18.08 СВ 1 6000 м 4/4 300 м
[St]
+22.5 +19.7 84 +29 +29 очень
душно
1011.6 991.1
06 18.08 З 3 6000 м 6/6 300 м
[St]
+23.2 +20.0 82 +30 +30 очень
душно
1012.0 991.6 +20.8
09 18.08 СЗ 2 15 км ясно +26.9 +19.3 63 +32 +42 очень
душно
1012.9 992.7
12 18.08 С 7 15 км ясно +33.3 +18.7 42 +38 +43 очень
душно
1012.4 992.6
15 18.08 СВ 7-12
{18}
15 км ясно +32.2 +18.8 45 +37 +40 очень
душно
1011.9 992.2
18 18.08 С 5-10
{18}
15 км ясно +30.8 +11.2 30 +31 +31 жарко 1011.6 991.5 +34.2
21 18.08 штиль 0-2
{6}
15 км ясно +25.7 +8.7 34 +26 +26 жарко 1014.0 993.5
00 19.08 штиль 0-1
{2}
15 км ясно +21.4 +8.7 44 +23 +23 комфорт 1014.6 993.7

 

Местоположение метеостанции Аль-Аруи (Марокко): широта 34.98 долгота -3.02 высота над уровнем моря 177 м.

В архиве по умолчанию представлена погода в Аль-Аруи за последнюю неделю. Архивные данные за месяц целиком и за предыдущие месяцы, начиная с января 2011 года, Вы можете получить, выбрав интересующий диапазон дат из раскрывающегося списка и нажав кнопку "Ввод!".


*Определитесь, кто Вы:
робот инопланетянин человек

Внимание! Время в таблицах - всемирное. Для получения местного времени необходимо прибавить поправку, которая равна 0 ч.

Смотрите также архив погоды в соседних городах и на ближайших метеорологических станциях:

Погода в Мелилье (Испания) (34 км)
Погода в Эль-Хосейме (Марокко) (79 км)
Погода в Уджде (Марокко) (102 км)
Погода в Газауэте (Алжир) (106 км)
Погода в Багнии (Алжир) (115 км)
Погода в Тазе (Марокко) (123 км)
Погода в Аэропорту Messali El Hadj (Алжир) (141 км)
Погода в Бени-Сафе (Алжир) (156 км)
Погода на Мысе Рокетас-де-Мар (Испания) (192 км)
Погода в Адре - клуб Наутико (Испания) (197 км)

Пояснения к столбцам:

Ветер - указаны скорость ветра в м/с - средняя за 10 мин, порывы в срок и между сроками (в фигурных скобках) и направление, откуда дует ветер: С - северный, СВ - северо-восточный, В - восточный, ЮВ - юго-восточный, Ю - южный, ЮЗ - юго-западный, З - западный, СЗ - северо-западный.
Видимость - горизонтальная дальность видимости в метрах или километрах. При видимости от 1 до 10 км при отсутствии осадков обычно наблюдается дымка, при ухудшении видимости до 1 км и менее - туман. В сухую погоду видимость может ухудшаться дымом, пылью или мглою.
Явления - указаны атмосферные явления, наблюдавшиеся в срок или в последний час перед сроком; фигурными скобками обозначены явления, наблюдавшиеся между сроками (за 1-3 часа до срока); квадратными скобками обозначены град или гололедные отложения с указанием их диаметра в мм.
Облачность - указаны через наклонную черту общая и нижняя облачность в баллах и высота нижней границы облаков в метрах; квадратными скобками обозначены формы облаков: Ci - перистые, Cs - перисто-слоистые, Cc - перисто-кучевые, Ac - высококучевые, As - высокослоистые, Sc - слоисто-кучевые, Ns - слоисто-дождевые, Cu - кучевые, Cb - кучево-дождевые. Подробнее классификацию облаков см. в Атласе облаков (PDF).
T - Температура воздуха - температура, измеренная на высоте 2 м над землей.
Td - Температура точки росы - температура, при понижении до которой содержащийся в воздухе водяной пар достигнет насыщения.
f - Относительная влажность воздуха - влажноcть воздуха, измеренная на высоте 2 м над землей.
Te - Эффективная температура - температура, которую ощущает одетый по сезону человек в тени. Характеристика душности погоды. При расчете учитывается влияние влажности воздуха и скорости ветра на теплоощущения человека.
Tes - Эффективная температура на солнце - температура, которую ощущает человек, с поправкой на солнечный нагрев. Характеристика знойности погоды. Зависит от высоты солнца над горизонтом, облачности и скорости ветра. Ночью, в пасмурную погоду, а также при ветре 12 м/с и более поправка равна нулю.
P - Атмосферное давление - приведенное к уровню моря атмосферное давление.
Po - Атмосферное давление - измеренное на уровне метеостанции атмосферное давление.
Tmin - Минимальная температура - минимум температуры воздуха на высоте 2 м над землей.
Tmax - Максимальная температура - максимум температуры воздуха на высоте 2 м над землей.
R - Количество осадков - Количество выпавших осадков за период времени, мм. При наведении курсора мыши на число - период времени, за который выпало указанное количество осадков.
R24 - Количество осадков - Количество выпавших осадков за 24 часа, мм.
S - Снежный покров - Высота снежного покрова, см. При наведении курсора мыши на число - состояние снежного покрова и степень покрытия местности в баллах.